This is the latest recevied weather packets stored in our database for station/object DO7ZT-13. If no packets are shown the sender has not sent any weather packets the latest 10 day(s).
| Time | Temp. | Humidity | Pressure | Rain* | Wind** | Luminosity | Snow |
|---|---|---|---|---|---|---|---|
| 1777473012 | 11.11° C | 29% | 1028.2 hPa | 0 mm | 1.34 m/s, 30° | - | - |
| 1777472725 | 10° C | 29% | 1028.2 hPa | 0 mm | 1.34 m/s, 0° | - | - |
| 1777472412 | 10° C | 29% | 1028.2 hPa | 0 mm | 1.79 m/s, 42° | - | - |
| 1777472125 | 10° C | 29% | 1028.3 hPa | 0 mm | 1.34 m/s, 54° | - | - |
| 1777471812 | 11.11° C | 32% | 1028.3 hPa | 0 mm | 1.34 m/s, 36° | - | - |
| 1777471524 | 11.11° C | 28% | 1028.3 hPa | 0 mm | 1.34 m/s, 6° | - | - |
| 1777471212 | 11.11° C | 28% | 1028.5 hPa | 0 mm | 2.24 m/s, 324° | - | - |
| 1777470925 | 10° C | 28% | 1028.5 hPa | 0 mm | 0.89 m/s, 324° | - | - |
| 1777470612 | 10° C | 28% | 1028.5 hPa | 0 mm | 1.34 m/s, 48° | - | - |
| 1777470337 | 11.11° C | 28% | 1028.2 hPa | 0 mm | 1.79 m/s, 6° | - | - |
| 1777470025 | 11.11° C | 28% | 1028.2 hPa | 0 mm | 0.89 m/s, 18° | - | - |
| 1777469713 | 10° C | 29% | 1028.2 hPa | 0 mm | 0.89 m/s, 324° | - | - |
| 1777469425 | 10° C | 29% | 1028.1 hPa | 0 mm | 0.89 m/s, 42° | - | - |
| 1777469112 | 10° C | 27% | 1028.1 hPa | 0 mm | 1.79 m/s, 43° | - | - |
| 1777468824 | 10° C | 26% | 1028.1 hPa | 0 mm | 1.79 m/s, 336° | - | - |
| 1777468512 | 10° C | 29% | 1028 hPa | 0 mm | 1.34 m/s, 24° | - | - |
| 1777468224 | 10° C | 27% | 1028 hPa | 0 mm | 1.79 m/s, 48° | - | - |
| 1777467912 | 10° C | 27% | 1028 hPa | 0 mm | 1.34 m/s, 330° | - | - |
| 1777467624 | 10° C | 30% | 1028.1 hPa | 0 mm | 2.24 m/s, 83° | - | - |
| 1777467312 | 11.11° C | 29% | 1028.1 hPa | 0 mm | 1.79 m/s, 49° | - | - |
| 1777467024 | 10° C | 30% | 1028.1 hPa | 0 mm | 1.34 m/s, 318° | - | - |
| 1777466712 | 10° C | 28% | 1027.9 hPa | 0 mm | 2.68 m/s, 354° | - | - |
| 1777466424 | 10° C | 30% | 1027.9 hPa | 0 mm | 1.79 m/s, 6° | - | - |
| 1777466112 | 11.11° C | 33% | 1027.9 hPa | 0 mm | 1.34 m/s, 348° | - | - |
| 1777465825 | 10° C | 32% | 1028.1 hPa | 0 mm | 2.24 m/s, 342° | - | - |
* Rain latest hour (hover to see other rain measurements)
** Current wind speed in m/s (hover to see current wind gust speed)